#timestamp,LO_Frequency,Hit,StdDev 
1511881215.3,286047000.4,N
1511881235.1,286046998.5,N
1511881255.9,286047000.4,N
1511881275.7,286046999.9,N
1511881295.5,286046999.3,N
1511881315.4,286046995.3,N
1511881335.2,286046999.6,N
1511881355.0,286046999.3,N
1511881355.9,286046999.3,N
1511881375.8,286047004.2,N
1511881395.6,286047003.0,N
1511881415.4,286047001.7,N
1511881435.2,286046999.9,N
1511881455.1,286046999.3,N
1511881456.0,286046999.3,N
1511881475.8,286046997.6,N
1511881495.6,286046997.5,N
1511881515.5,286046997.1,N
1511881535.3,286046993.3,N
1511881555.1,286046994.4,N
1511881575.9,286046993.4,N
1511881595.7,286046996.2,N
1511881615.5,286046993.9,N
1511881635.4,286046992.1,Y
1511881655.2,286046994.1,P
1511881675.0,286046995.9,N
1511881675.9,286046995.9,N
1511881695.8,286046999.4,N
1511881715.6,286046998.4,N
1511881735.4,286046999.8,N
1511881755.3,286047002.5,N
1511881775.1,286047002.1,N
1511881776.0,286047002.1,N
1511881795.8,286047003.1,N
1511881815.6,286047005.2,N
1511881835.5,286047007.6,N
1511881855.3,286047003.4,N
1511881875.1,286047000.1,N
1511881895.9,286047000.5,N
1511881915.7,286046998.3,N
1511881935.5,286046997.8,N
1511881955.4,286047000.0,N
1511881975.2,286047005.4,N
1511881995.0,286047003.0,N
1511881995.9,286047003.0,N
1511882015.8,286047005.7,N
1511882035.6,286047004.1,N
1511882055.4,286047006.9,N
1511882075.3,286047007.5,N
1511882095.1,286047010.4,N
1511882096.0,286047010.4,N
1511882115.8,286047011.1,N
1511882135.6,286047009.7,N
1511882155.5,286047010.7,N
1511882175.3,286047011.2,N
1511882195.2,286047015.4,Y
1511882215.9,286047013.5,P
1511882235.7,286047013.2,N
1511882255.5,286047011.2,N
1511882275.4,286047013.2,Y
1511882295.2,286047001.3,P
1511882315.0,286047001.5,N
1511882316.0,286047001.5,N
1511882335.8,286046996.6,N
1511882355.6,286046997.8,N
1511882375.4,286046997.7,N
1511882395.3,286046996.0,N
1511882415.1,286046996.0,N
1511882435.8,286046991.9,N
1511882455.7,286046987.1,N
1511882475.5,286046985.4,N
1511882495.3,286046986.6,N
1511882515.2,286046983.7,N
1511882535.9,286046984.6,N
1511882555.7,286046986.1,N
1511882575.6,286046983.9,N
1511882595.4,286046986.5,N
1511882615.2,286046987.8,N
1511882635.1,286046986.5,N
1511882636.0,286046986.5,N
1511882655.8,286046986.0,N
1511882675.6,286046988.0,N
1511882695.5,286046985.9,N
1511882715.3,286046986.1,N
1511882735.1,286046984.9,N
1511882755.8,286046984.0,N
1511882775.7,286046985.8,N
1511882795.5,286046989.6,N
1511882815.3,286046989.9,N
1511882835.2,286046989.6,N
1511882855.9,286046988.7,N
1511882875.7,286046992.7,N
1511882895.6,286046989.8,N
1511882915.4,286046988.6,N
1511882935.2,286046990.0,N
1511882955.1,286046990.0,N
1511882956.0,286046990.0,Y
1511882975.8,286047003.0,P
1511882995.6,286047008.6,N
1511883015.5,286047008.0,N
1511883035.3,286047002.9,N
1511883055.1,286047002.4,N
1511883075.9,286046998.6,N
1511883095.7,286047000.6,N
1511883115.5,286047000.7,N
1511883135.3,286047000.1,N
1511883155.2,286047001.6,N
1511883175.0,286047004.1,N
1511883175.9,286047004.1,N
1511883195.7,286047008.6,N
1511883215.6,286047009.6,N
1511883235.4,286047012.3,N
1511883255.2,286047012.4,N
1511883275.1,286047013.9,N
1511883276.0,286047013.9,N
1511883295.8,286047012.6,N
1511883315.6,286047014.0,N
1511883335.5,286047010.9,N
1511883355.3,286047015.4,N
1511883375.1,286047013.5,N
1511883395.9,286047013.7,N
1511883415.7,286047018.4,N
1511883435.5,286047020.0,N
1511883455.3,286047017.4,N
1511883475.2,286047017.6,N
1511883495.0,286047015.7,N
1511883495.9,286047015.7,N
1511883515.7,286047019.0,Y
1511883535.6,286047006.6,P
1511883555.4,286047005.9,P
1511883575.2,286047002.9,N
1511883595.1,286047005.9,N
1511883596.0,286047005.9,N
1511883615.8,286047002.5,N
1511883635.6,286047000.2,N
1511883655.5,286047002.7,N
1511883675.3,286047004.3,N
1511883695.1,286047002.1,N
1511883715.9,286046999.7,N
1511883735.7,286047003.1,N
1511883755.5,286047007.1,N
1511883775.4,286047004.6,N
1511883795.2,286047003.9,N
1511883815.0,286047001.6,N
1511883815.9,286047001.6,N
1511883835.7,286047005.9,N
1511883855.6,286047005.0,N
1511883875.4,286047006.5,N
1511883895.2,286047004.6,N
1511883915.1,286047003.2,N
1511883916.0,286047003.2,N
1511883935.8,286047004.2,N
1511883955.6,286047003.8,N
1511883975.5,286047007.5,Y
1511883995.3,286047003.1,P
1511884015.1,286047005.9,P
1511884035.9,286047005.4,P
1511884055.7,286047001.7,N
1511884075.5,286047000.3,N
1511884095.4,286047003.6,N
1511884115.2,286047007.2,Y
1511884135.0,286047005.3,P
1511884135.9,286047005.3,P
1511884155.8,286047003.3,P
1511884175.6,286047004.2,Y
1511884195.4,286046997.2,P
1511884215.3,286046994.9,N
1511884235.1,286046997.8,N
1511884236.0,286046997.8,N
1511884255.8,286046997.5,N
1511884275.7,286046992.1,N
1511884295.5,286046993.1,N
1511884315.3,286046992.9,N
1511884335.2,286046992.3,N
1511884355.9,286046994.6,N
1511884375.7,286046995.2,N
1511884395.5,286046997.9,N
1511884415.4,286046995.8,N
1511884435.2,286046993.5,N
1511884455.0,286046994.7,N
1511884455.9,286046994.7,N
1511884475.8,286046993.6,N
1511884495.6,286046994.2,N
1511884515.4,286046994.7,N
1511884535.3,286046994.8,N
1511884555.1,286046996.0,N
1511884556.0,286046996.0,N
1511884575.8,286046994.1,N
1511884595.7,286046993.0,N
1511884615.5,286046990.9,Y
1511884635.3,286046994.3,P
1511884655.2,286046990.5,P
1511884675.9,286046987.9,P
1511884695.7,286046989.7,Y
1511884715.6,286046997.6,P
1511884735.4,286046993.7,N
1511884755.2,286046995.5,N
1511884775.1,286046997.9,N
1511884776.0,286046997.9,N
1511884795.8,286046996.8,N
